This is the latest recevied weather packets stored in our database for station/object KB2AHZ. If no packets are shown the sender has not sent any weather packets the latest 10 day(s).
| Time | Temp. | Humidity | Pressure | Rain* | Wind** | Luminosity | Snow |
|---|---|---|---|---|---|---|---|
| 1777393695 | 16.67° C | 75% | 1020.6 hPa | 0 mm | - | 530 W/m² | - |
| 1777393391 | 16.11° C | 76% | 1020.8 hPa | 0 mm | - | 542 W/m² | - |
| 1777393087 | 16.11° C | 76% | 1020.5 hPa | 0 mm | - | 554 W/m² | - |
| 1777392783 | 16.11° C | 78% | 1020.3 hPa | 0 mm | - | 665 W/m² | - |
| 1777392479 | 16.11° C | 80% | 1020.3 hPa | 0 mm | - | 651 W/m² | - |
| 1777392175 | 16.11° C | 78% | 1020.8 hPa | 0 mm | - | 495 W/m² | - |
| 1777391870 | 15.56° C | 82% | 1020.6 hPa | 0 mm | - | 593 W/m² | - |
| 1777391565 | 15.56° C | 81% | 1020.6 hPa | 0 mm | - | 603 W/m² | - |
| 1777391262 | 15° C | 83% | 1020.6 hPa | 0 mm | - | 618 W/m² | - |
| 1777390959 | 15° C | 89% | 1020.8 hPa | 0 mm | - | 475 W/m² | - |
| 1777390655 | 14.44° C | 86% | 1020.8 hPa | 0 mm | - | 367 W/m² | - |
| 1777390352 | 14.44° C | 87% | 1021 hPa | 0 mm | - | 328 W/m² | - |
| 1777390047 | 13.89° C | 90% | 1020.9 hPa | 0 mm | - | 454 W/m² | - |
| 1777389745 | 13.89° C | 87% | 1021.2 hPa | 0 mm | - | 429 W/m² | - |
| 1777389441 | 13.89° C | 89% | 1020.9 hPa | 0 mm | - | 449 W/m² | - |
| 1777389139 | 13.33° C | 89% | 1020.8 hPa | 0 mm | - | 452 W/m² | - |
| 1777388836 | 12.78° C | 92% | 1021 hPa | 0 mm | - | 529 W/m² | - |
| 1777388533 | 12.22° C | 94% | 1021 hPa | 0 mm | - | 430 W/m² | - |
| 1777388228 | 11.67° C | 94% | 1021 hPa | 0 mm | - | 346 W/m² | - |
| 1777387924 | 11.67° C | 95% | 1020.8 hPa | 0 mm | - | 275 W/m² | - |
| 1777387620 | 11.67° C | 95% | 1021.1 hPa | 0 mm | - | 198 W/m² | - |
| 1777387317 | 11.11° C | 95% | 1021.4 hPa | 0 mm | - | 174 W/m² | - |
| 1777387011 | 11.11° C | 95% | 1021.6 hPa | 0 mm | - | 145 W/m² | - |
| 1777386708 | 11.11° C | 96% | 1021.4 hPa | 0 mm | - | 186 W/m² | - |
| 1777386405 | 11.11° C | 97% | 1021.6 hPa | 0 mm | - | 278 W/m² | - |
* Rain latest hour (hover to see other rain measurements)
** Current wind speed in m/s (hover to see current wind gust speed)